TimeMST,TemperatureF,Dew PointF,Humidity,Sea Level PressureIn,VisibilityMPH,Wind Direction,Wind SpeedMPH,Gust SpeedMPH,PrecipitationIn,Events,Conditions,WindDirDegrees,DateUTC
12:53 AM,18.0,15.1,88,30.57,10.0,Calm,Calm,-,N/A,,Clear,0,2012-02-04 07:53:00
1:53 AM,18.0,14.0,84,30.56,10.0,Calm,Calm,-,N/A,,Clear,0,2012-02-04 08:53:00
2:53 AM,16.0,14.0,92,30.58,10.0,Calm,Calm,-,N/A,,Clear,0,2012-02-04 09:53:00
3:53 AM,17.1,12.9,84,30.56,10.0,Calm,Calm,-,N/A,,Clear,0,2012-02-04 10:53:00
4:53 AM,17.1,12.9,84,30.56,10.0,South,3.5,-,N/A,,Clear,170,2012-02-04 11:53:00
5:53 AM,15.1,12.0,88,30.60,10.0,Calm,Calm,-,N/A,,Clear,0,2012-02-04 12:53:00
6:53 AM,15.1,12.0,88,30.61,10.0,Calm,Calm,-,N/A,,Clear,0,2012-02-04 13:53:00
7:53 AM,15.1,12.0,88,30.63,10.0,SSE,3.5,-,N/A,,Clear,160,2012-02-04 14:53:00
8:53 AM,18.0,14.0,84,30.63,10.0,Calm,Calm,-,N/A,,Clear,0,2012-02-04 15:53:00
9:53 AM,21.9,17.1,82,30.63,10.0,Calm,Calm,-,N/A,,Clear,0,2012-02-04 16:53:00
10:53 AM,24.1,18.0,77,30.62,10.0,North,3.5,-,N/A,,Clear,10,2012-02-04 17:53:00
11:53 AM,27.0,19.0,72,30.59,10.0,Calm,Calm,-,N/A,,Clear,0,2012-02-04 18:53:00
12:53 PM,28.9,19.0,67,30.56,10.0,Calm,Calm,-,N/A,,Clear,0,2012-02-04 19:53:00
1:53 PM,32.0,19.0,59,30.53,10.0,Calm,Calm,-,N/A,,Clear,0,2012-02-04 20:53:00
2:53 PM,36.0,19.0,50,30.50,10.0,Calm,Calm,-,N/A,,Clear,0,2012-02-04 21:53:00
3:53 PM,37.9,19.9,48,30.48,10.0,Calm,Calm,-,N/A,,Clear,0,2012-02-04 22:53:00
4:53 PM,36.0,21.0,55,30.47,10.0,Calm,Calm,-,N/A,,Clear,0,2012-02-04 23:53:00
5:53 PM,30.9,21.0,67,30.49,10.0,Calm,Calm,-,N/A,,Clear,0,2012-02-05 00:53:00
6:53 PM,27.0,19.0,72,30.51,10.0,SW,4.6,-,N/A,,Clear,230,2012-02-05 01:53:00
7:53 PM,26.1,18.0,71,30.51,10.0,SW,4.6,-,N/A,,Clear,220,2012-02-05 02:53:00
8:53 PM,25.0,18.0,75,30.51,10.0,South,3.5,-,N/A,,Clear,180,2012-02-05 03:53:00
9:53 PM,21.0,17.1,85,30.51,10.0,Calm,Calm,-,N/A,,Clear,0,2012-02-05 04:53:00
10:53 PM,21.9,17.1,82,30.50,10.0,Calm,Calm,-,N/A,,Clear,0,2012-02-05 05:53:00
11:53 PM,21.0,16.0,81,30.51,10.0,Calm,Calm,-,N/A,,Clear,0,2012-02-05 06:53:00